Location: Banff
(51.1667°N, 115.5667°W)
Time: 19:41:28
(UTC+00:00)

Vanguard 1 Rocket - Pass Details

Date: 30 November 2020
Orbit: 655 x 4221 km, 34.3° (Epoch: 17 January)

Event Time Altitude Azimuth Distance (km) Brightness Sun altitude
Exits shadow 08:59:02 35° 131° (SE) 4,879 10.8 -56.0°
Drops below altitude 10° 09:09:56 10° 99° (E) 5,765 11.6 -54.8°
Sets 09:13:54 0° 93° (E) 6,363 12.0 -54.4°
